ロングモア彗星

77P/Longmore (2023)

English version
Home page
Updated on November 3, 2020

---------------------------------------------------------------------

・ プロフィール

・ 軌道要素

Epoch 2023 Apr. 6.0 TT = JDT 2460040.5
T 2023 Apr. 3.11789 TT                                  MPCW
q   2.3487680            (2000.0)            P               Q
n   0.14286880     Peri.  196.73032     -0.85916569     +0.50081405
a   3.6239132      Node    14.76810     -0.40954486     -0.55003109
e   0.3518697      Incl.   24.31880     -0.30676916     -0.66831960
P   6.90
From 1538 observations 1981 Jan. 3-2016 May 18, mean residual 0".7.
     Nongravitational parameters A1 = +0.15, A2 = -0.0468.

・ 星図

・ 光度変化

        H = 14.0  G = 0.15               [    ,-427]  (              〜2022年 1月31日)
        m1 = 4.0 + 5 logΔ + 25.0 log r  [-427, 445]  (2022年 1月31日〜2024年 6月21日)
        H = 14.0  G = 0.15               [ 445,    ]  (2024年 6月21日〜              )

---------------------------------------------------------------------

軌道要素はM.P.E.C. 2016-K18に掲載されたものです。
星図はステラナビゲータ Ver.10 (アストロアーツ) で作成したものです。
光度グラフはComet for Windowsで作成したものです。

---------------------------------------------------------------------

Copyright(C) Seiichi Yoshida (comet@aerith.net). All rights reserved.